Weather History for Watertown, WI

Change the Weather History Date:

Thursday, January 30, 2014

  Actual Average Record
Temperature  
Mean Temperature 22 °F -  
Max Temperature 29 °F 26 °F 46 °F (1926)
Min Temperature 15 °F 10 °F -29 °F (1951)
Degree Days  
Heating Degree Days 42    
Moisture  
Dew Point 16 °F    
Average Humidity 74    
Maximum Humidity 92    
Minimum Humidity 57    
Precipitation  
Precipitation 0.01 in - - ()
Sea Level Pressure  
Sea Level Pressure 29.69 in    
Wind  
Wind Speed 14 mph (SSW)    
Max Wind Speed 21 mph    
Max Gust Speed 31 mph    
Visibility 9 miles    
Events Snow    
Averages and records for this station are not official NWS values.
T = Trace of Precipitation, MM = Missing Value Source: NWS Daily Summary

Daily Weather History Graph

Daily Weather History Graph

Search for Another Location

Airport:

Trip Planner

Search our weather history database for the weather conditions in past years. The results will help you decide how hot, cold, wet, or windy it might be!

Date:

Astronomy

Jan. 30, 2014 Rise Set
Actual Time 7:12 AM CST 5:04 PM CST
Civil Twilight 6:42 AM CST 5:34 PM CST
Nautical Twilight 6:07 AM CST 6:09 PM CST
Astronomical Twilight 5:34 AM CST 6:42 PM CST
Moon 6:37 AM CST (1/30) 5:17 PM CST (1/30)
Length of Visible Light 10h 52m
Length of Day
9h 52m
Waning Crescent, 0% of the Moon is Illuminated
Jan 30
Waning Crescent
Jan 30
New
Feb 6
First Quarter
Feb 14
Full
Feb 22
Last Quarter

Hourly Weather History & Observations

Time (CST) Temp. Windchill Dew Point Humidity Pressure Visibility Wind Dir Wind Speed Gust Speed Precip Events Conditions
12:15 AM 21.7 °F 7.1 °F 8.4 °F 57% 29.83 in 10.0 mi SSW 18.4 mph 26.5 mph N/A   Clear
12:35 AM 21.2 °F 8.3 °F 8.2 °F 57% 29.81 in 10.0 mi SSW 13.8 mph 21.9 mph N/A   Clear
12:55 AM 20.7 °F 7.6 °F 7.7 °F 57% 29.81 in 10.0 mi South 13.8 mph 19.6 mph N/A   Scattered Clouds
1:15 AM 20.3 °F 6.6 °F 7.7 °F 58% 29.80 in 10.0 mi South 15.0 mph 19.6 mph N/A   Scattered Clouds
1:35 AM 20.3 °F 6.6 °F 7.7 °F 58% 29.79 in 10.0 mi South 15.0 mph 21.9 mph N/A   Clear
1:55 AM 19.9 °F 7.9 °F 7.7 °F 59% 29.78 in 10.0 mi South 11.5 mph 17.3 mph N/A   Clear
2:15 AM 19.4 °F 7.9 °F 7.7 °F 60% 29.78 in 10.0 mi South 10.4 mph 17.3 mph N/A   Clear
2:35 AM 19.9 °F 7.3 °F 8.4 °F 61% 29.77 in 10.0 mi South 12.7 mph - N/A   Clear
2:55 AM 20.1 °F 7.5 °F 8.4 °F 61% 29.76 in 10.0 mi South 12.7 mph 18.4 mph N/A   Clear
3:15 AM 19.9 °F 8.6 °F 8.6 °F 61% 29.75 in 10.0 mi South 10.4 mph 17.3 mph N/A   Clear
3:35 AM 20.1 °F 8.8 °F 9.0 °F 62% 29.74 in 10.0 mi South 10.4 mph 17.3 mph N/A   Clear
3:55 AM 20.7 °F 8.2 °F 9.3 °F 62% 29.73 in 10.0 mi South 12.7 mph 18.4 mph N/A   Clear
4:15 AM 20.8 °F 6.4 °F 9.5 °F 62% 29.72 in 10.0 mi South 17.3 mph 24.2 mph N/A   Clear
4:35 AM 21.2 °F 6.0 °F 10.0 °F 62% 29.71 in 10.0 mi South 19.6 mph 25.3 mph N/A   Clear
4:55 AM 21.7 °F 7.1 °F 10.4 °F 62% 29.71 in 10.0 mi South 18.4 mph 25.3 mph N/A   Clear
5:15 AM 22.1 °F 8.5 °F 10.9 °F 62% 29.70 in 10.0 mi South 16.1 mph 25.3 mph N/A   Clear
5:35 AM 22.5 °F 8.9 °F 11.3 °F 62% 29.71 in 10.0 mi South 16.1 mph 24.2 mph N/A   Scattered Clouds
5:55 AM 22.5 °F 9.9 °F 11.3 °F 62% 29.70 in 10.0 mi South 13.8 mph 23.0 mph N/A   Scattered Clouds
6:15 AM 22.5 °F 8.5 °F 11.3 °F 62% 29.69 in 10.0 mi South 17.3 mph 23.0 mph N/A   Clear
6:35 AM 22.6 °F 10.1 °F 11.7 °F 63% 29.69 in 10.0 mi South 13.8 mph 20.7 mph N/A   Clear
6:55 AM 22.1 °F 10.6 °F 11.5 °F 64% 29.69 in 10.0 mi South 11.5 mph 18.4 mph N/A   Clear
7:15 AM 22.1 °F 8.9 °F 12.0 °F 65% 29.68 in 10.0 mi South 15.0 mph 20.7 mph N/A   Scattered Clouds
7:35 AM 22.3 °F 9.2 °F 12.0 °F 65% 29.68 in 10.0 mi South 15.0 mph 18.4 mph N/A   Scattered Clouds
7:55 AM 22.1 °F 8.5 °F 12.2 °F 66% 29.67 in 10.0 mi South 16.1 mph 20.7 mph N/A   Mostly Cloudy
8:15 AM 22.6 °F 8.7 °F 12.7 °F 66% 29.66 in 10.0 mi South 17.3 mph 21.9 mph N/A   Mostly Cloudy
8:35 AM 23.0 °F 10.6 °F 13.1 °F 66% 29.66 in 10.0 mi South 13.8 mph 24.2 mph N/A   Overcast
8:55 AM 23.0 °F 9.2 °F 13.5 °F 67% 29.65 in 10.0 mi South 17.3 mph 27.6 mph N/A   Overcast
9:15 AM 23.5 °F 9.4 °F 13.6 °F 66% 29.63 in 10.0 mi South 18.4 mph 25.3 mph N/A   Overcast
9:35 AM 23.5 °F 9.4 °F 14.0 °F 67% 29.62 in 10.0 mi South 18.4 mph 27.6 mph N/A   Overcast
9:55 AM 23.9 °F 10.8 °F 14.0 °F 66% 29.61 in 10.0 mi South 16.1 mph 31.1 mph N/A   Overcast
10:15 AM 24.3 °F 11.2 °F 14.5 °F 67% 29.64 in 10.0 mi SSW 16.1 mph 26.5 mph N/A   Overcast
10:35 AM 24.6 °F 11.7 °F 14.9 °F 67% 29.62 in 10.0 mi South 16.1 mph 23.0 mph N/A   Overcast
10:55 AM 25.2 °F 12.0 °F 14.7 °F 65% 29.61 in 10.0 mi South 17.3 mph 26.5 mph N/A   Mostly Cloudy
11:15 AM 25.3 °F 12.2 °F 14.9 °F 65% 29.61 in 10.0 mi South 17.3 mph 26.5 mph N/A   Overcast
11:35 AM 25.5 °F 12.4 °F 14.9 °F 64% 29.59 in 10.0 mi South 17.3 mph 24.2 mph N/A   Overcast
11:55 AM 23.7 °F 9.3 °F 18.7 °F 81% 29.59 in 0.8 mi SSW 19.6 mph 28.8 mph N/A Snow Light Snow
12:15 PM 22.8 °F 9.9 °F 20.8 °F 92% 29.57 in 0.2 mi SSW 15.0 mph 24.2 mph N/A Snow Snow
12:35 PM 23.0 °F 11.7 °F 21.0 °F 92% 29.56 in 0.8 mi South 11.5 mph 20.7 mph 0.01 in Snow Light Snow
12:55 PM 23.2 °F 10.8 °F 21.2 °F 92% 29.55 in 0.5 mi South 13.8 mph 18.4 mph 0.01 in Snow Light Snow
1:15 PM 24.1 °F 11.5 °F 21.4 °F 89% 29.55 in 2.0 mi South 15.0 mph 20.7 mph N/A Snow Light Snow
1:35 PM 24.6 °F 12.2 °F 21.0 °F 86% 29.54 in 5.0 mi South 15.0 mph 21.9 mph N/A   Overcast
1:55 PM 24.8 °F 11.5 °F 21.2 °F 86% 29.54 in 4.0 mi SSW 17.3 mph 23.0 mph N/A   Overcast
2:15 PM 25.3 °F 11.0 °F 21.7 °F 86% 29.54 in 4.0 mi SSW 20.7 mph 26.5 mph N/A   Overcast
2:35 PM 25.7 °F 11.9 °F 22.1 °F 86% 29.55 in 5.0 mi SSW 19.6 mph 24.2 mph N/A   Overcast
2:55 PM 26.1 °F 13.6 °F 22.6 °F 87% 29.55 in 7.0 mi SSW 16.1 mph 19.6 mph N/A   Overcast
3:15 PM 26.6 °F 14.7 °F 23.0 °F 86% 29.57 in 10.0 mi SSW 15.0 mph 20.7 mph N/A   Overcast
3:35 PM 27.3 °F 16.6 °F 23.5 °F 86% 29.58 in 10.0 mi SSW 12.7 mph 20.7 mph N/A   Overcast
3:55 PM 27.5 °F 16.8 °F 23.9 °F 86% 29.59 in 10.0 mi SW 12.7 mph 21.9 mph N/A   Overcast
4:15 PM 27.9 °F 17.3 °F 24.4 °F 87% 29.60 in 10.0 mi SW 12.7 mph 17.3 mph N/A   Overcast
4:35 PM 28.2 °F 17.7 °F 24.8 °F 87% 29.61 in 7.0 mi SW 12.7 mph - N/A   Overcast
4:55 PM 28.4 °F 19.1 °F 25.3 °F 88% 29.62 in 7.0 mi SW 10.4 mph - N/A   Overcast
5:15 PM 28.8 °F 19.0 °F 25.7 °F 88% 29.63 in 7.0 mi SW 11.5 mph - N/A   Overcast
5:35 PM 28.9 °F 20.4 °F 26.2 °F 90% 29.64 in 7.0 mi SW 9.2 mph - N/A   Overcast
5:55 PM 29.1 °F 20.0 °F 26.4 °F 90% 29.65 in 10.0 mi SW 10.4 mph - N/A   Overcast
6:15 PM 29.3 °F 21.5 °F 26.6 °F 90% 29.66 in 10.0 mi SW 8.1 mph - N/A   Overcast
6:35 PM 29.5 °F 22.5 °F 26.6 °F 89% 29.68 in 10.0 mi WSW 6.9 mph - N/A   Overcast
6:55 PM 29.8 °F 22.2 °F 26.6 °F 88% 29.69 in 10.0 mi WSW 8.1 mph - N/A   Overcast
7:15 PM 29.7 °F 22.8 °F 26.4 °F 88% 29.70 in 10.0 mi West 6.9 mph - N/A   Overcast
7:35 PM 29.7 °F 24.7 °F 26.1 °F 86% 29.71 in 10.0 mi West 4.6 mph - N/A   Overcast
7:55 PM 28.9 °F 22.8 °F 24.3 °F 83% 29.71 in 10.0 mi WNW 5.8 mph - N/A   Overcast
8:15 PM 28.4 °F 20.4 °F 22.8 °F 80% 29.74 in 10.0 mi NW 8.1 mph - N/A   Overcast
8:35 PM 28.0 °F 18.1 °F 22.1 °F 78% 29.75 in 10.0 mi WNW 11.5 mph - N/A   Overcast
8:55 PM 26.1 °F 16.2 °F 20.3 °F 79% 29.78 in 10.0 mi NW 10.4 mph 19.6 mph N/A   Overcast
9:15 PM 23.9 °F 12.9 °F 18.0 °F 78% 29.79 in 10.0 mi NW 11.5 mph 19.6 mph N/A   Scattered Clouds
9:35 PM 21.7 °F 12.3 °F 15.3 °F 76% 29.81 in 10.0 mi NW 8.1 mph - N/A   Clear
9:55 PM 21.2 °F 10.9 °F 14.9 °F 77% 29.83 in 10.0 mi NW 9.2 mph - N/A   Scattered Clouds
10:15 PM 20.8 °F 9.7 °F 14.9 °F 78% 29.85 in 10.0 mi WNW 10.4 mph 16.1 mph N/A   Overcast
10:35 PM 21.0 °F 9.3 °F 14.9 °F 77% 29.87 in 10.0 mi WNW 11.5 mph 17.3 mph N/A   Overcast
10:55 PM 18.5 °F 6.1 °F 10.4 °F 71% 29.88 in 10.0 mi NW 11.5 mph - N/A   Mostly Cloudy
11:15 PM 17.1 °F 5.0 °F 9.3 °F 72% 29.89 in 10.0 mi NW 10.4 mph - N/A   Scattered Clouds
11:35 PM 16.2 °F 5.5 °F 8.4 °F 72% 29.90 in 10.0 mi NW 8.1 mph - N/A   Scattered Clouds
11:55 PM 15.6 °F 0.6 °F 8.1 °F 72% 29.91 in 10.0 mi NW 15.0 mph 19.6 mph N/A   Clear